Regional Weather Roundup
Issued by NWS

Home | Current Version | Previous Version | Text Only | Print | Product List | Glossary On
Versions: 1 2 3 4 5 6 7 8 9 10 11 12 13 14 15 16 17 18 19 20 21 22 23 24 25 26 27 28 29 30 31 32 33 34 35 36 37 38 39 40 41 42 43 44 45 46 47 48 49 50
000
ASCA44 KEWX 132020
RWRMX

LATIN AMERICA AND CARIBBEAN REGIONAL WEATHER ROUNDUP
NATIONAL WEATHER SERVICE AUSTIN/SAN ANTONIO TX
200 PM CST SAT FEB 13 2016

NOTE: "FAIR" INDICATED FEW OR NO CLOUDS BELOW 12,000 FEET WITH NO
SIGNIFICANT WEATHER AND/OR OBSTRUCTIONS TO VISIBILITY.

BAJA CALIFORNIA

CITY           SKY/WX    TMP DP  RH WIND       PRES   REMARKS
LORETO         MOSUNNY   82  64  54 NE12      29.94F
LA PAZ         MOSUNNY   82  34  17 NW8       29.97
MEXICALI       SUNNY     82  18   9 CALM      30.04
S.J. DEL CABO  SUNNY     95  25   8 N14       29.93
TIJUANA        SUNNY     77  28  16 CALM      30.08

NORTHWESTERN MEXICO

CITY           SKY/WX    TMP DP  RH WIND       PRES   REMARKS
CULIACAN       PTSUNNY   88  64  45 S7        29.94
DURANGO        MOSUNNY   70  10  10 SE2       30.30
GUAYMAS        SUNNY     88  50  27 CALM      29.88
HERMOSILLO     MOSUNNY   91  27   9 CALM      29.98
CD. JUAREZ     MOSUNNY   72  28  20 CALM      30.18
LOS MOCHIS     PTSUNNY   84  52  32 NW9       29.93F
OBREGON        MOSUNNY   84  46  26 W7        29.91

NORTHEASTERN MEXICO

CITY           SKY/WX    TMP DP  RH WIND       PRES   REMARKS
CHIHUAHUA      MOSUNNY   75  18  11 SE16      30.24
MATAMOROS      PTSUNNY   75  61  60 E21       30.29
MONCLOVA         N/A    N/A N/A N/A MISG        N/A
MONTERREY      MOSUNNY   79  39  24 SE15      30.18F
NUEVO LAREDO   MOSUNNY   81  52  36 SE7       30.22
PIEDRAS NEGRAS MOSUNNY   73  57  56 SE7       30.24R
REYNOSA        MOSUNNY   77  48  36 S8        30.22
SALTILLO       MOSUNNY   73  43  33 N9        30.33F
TORREON        PTSUNNY   75  23  14 SE6       30.23
CD. VICTORIA   PTSUNNY   82  45  26 SE9       30.21

WESTERN MEXICO

CITY           SKY/WX    TMP DP  RH WIND       PRES   REMARKS
AGUASCALIENTES MOSUNNY   72  -2   5 E10       30.31
COLIMA         MOSUNNY   86  45  23 NE7       30.00F
DEL BAJIO      PTSUNNY   73   7   7 S10       30.33F
GUADALAJARA    PTSUNNY   75  14   9 E7        30.22
MANZANILLO     SUNNY     84  73  70 SW9       29.84  HX  91
MAZATLAN       MOSUNNY   90  63  40 S8        29.90F HX  90
P. VALLARTA    MOSUNNY   81  70  69 SW10      29.89F
URUAPAN        SUNNY     75  46  35 S12       30.17F
ZACATECAS        N/A    N/A N/A N/A MISG        N/A

CENTRAL MEXICO

CITY           SKY/WX    TMP DP  RH WIND       PRES   REMARKS
CUERNAVACA     SUNNY     75  23  14 CALM      30.18F
MEXICO CITY    SUNNY     66   9  10 NE5       30.34F
MORELIA        MOSUNNY   72  21  15 N10       30.25
POZA RICA      SUNNY     81  59  47 CALM      30.27F
PUEBLA         SUNNY     72   3   7 NW6       30.32F
QUERETARO      PTSUNNY   70   7   8 E18       30.35F
S. LUIS POTOSI MOSUNNY   66  18  15 SE12      30.34
TAMPICO        MOSUNNY   75  55  50 E14       30.24F
TOLUCA         MOSUNNY   70  25  18 NE7       30.36

SOUTHERN MEXICO

CITY           SKY/WX    TMP DP  RH WIND       PRES   REMARKS
ACAPULCO       SUNNY     88  61  40 SE12      29.84F
B. DE HUATULCO SUNNY     97  75  49 SE17G23   29.87  HX 109
OAXACA         PTSUNNY   72  36  26 NE7       30.25F
P. ESCONDIDO   SUNNY     82  72  69 S12       29.95F
VERACRUZ       CLOUDY    75  64  69 N7        30.22F
ZIHUATANEJO    SUNNY     90  72  55 SW6       29.86F HX  96

YUCATAN PENINSULA

CITY           SKY/WX    TMP DP  RH WIND       PRES   REMARKS
CAMPECHE       MOSUNNY   73  64  73 N12G23    30.13F
CANCUN         MOSUNNY   79  61  53 NE14      30.18F
CHETUMAL       PTSUNNY   81  63  54 N7        30.12F
CD. DEL CARMEN SUNNY     75  63  64 N10       30.17F
COZUMEL        MOSUNNY   75  64  69 NE15      30.16F
MERIDA         PTSUNNY   82  57  42 N18       30.16F
MINATITLAN     CLOUDY    73  66  78 NE12      30.14F
TAPACHULA      SUNNY     88  73  62 W12       29.86F HX  96
TUX. GUTIERREZ MOSUNNY   79  55  44 NW21      30.06F
VILLAHERMOSA   PTSUNNY   79  59  50 E14       30.18F

CENTRAL AMERICA

CITY           SKY/WX    TMP DP  RH WIND       PRES   REMARKS
BELIZE CITY    MOSUNNY   81  68  65 NE9       30.10F
MANAGUA        PTCLDY    91  68  46 NE18      29.80F HX  95

CARIBBEAN

CITY           SKY/WX    TMP DP  RH WIND       PRES   REMARKS
CURACAO        MOSUNNY   84  72  65 SE17      29.89S
KINGSTON       PTSUNNY   79  73  83 NW9       29.94F
NASSAU         MOSUNNY   81  45  28 NW8       30.14S
SAN JUAN       MOSUNNY   84  63  48 E15       29.96F
SANTO DOMINGO  MOSUNNY   84  70  61 S9        29.92F
ST. CROIX      MOSUNNY   82  68  61 SE12      29.98
ST. KITTS      MOSUNNY   82  68  61 E14       29.97S
ST. MAARTEN    MOSUNNY   81  68  65 E10       29.97S
ST. THOMAS     PTSUNNY   81  70  69 SE9       29.98

$$




USA.gov is the U.S. government's official web portal to all federal, state and local government web resources and services.